Regional Weather Roundup
Issued by NWS Newport/Morehead, NC

Current Version | Previous Version | Graphics & Text | Print | Product List | Glossary Off
Versions: 1 2 3 4 5 6 7 8 9 10 11 12 13 14 15 16 17 18 19 20 21 22 23 24 25 26 27 28 29 30 31 32 33 34 35 36 37 38 39 40 41 42 43 44 45 46 47 48 49 50

000
ASUS42 KMHX 011922
RWRMHX
WEATHER ROUNDUP FOR EASTERN NORTH CAROLINA
NATIONAL WEATHER SERVICE NEWPORT/MOREHEAD CITY NC
300 PM EDT MON SEP 01 2014

NOTE: "FAIR" INDICATES FEW OR NO CLOUDS BELOW 12,000 FEET
WITH NO SIGNIFICANT WEATHER AND/OR OBSTRUCTIONS TO VISIBILITY

NCZ015>017-031-032-045>047-102-103-012000-
NORTH COAST

CITY           SKY/WX    TMP DP  RH WIND       PRES   REMARKS
EDENTON        MOSUNNY   91  74  55 W8        30.03F HX 100
ELIZABETH CITY MOSUNNY   90  75  61 S12G20    30.03F HX 100
KITTY HAWK     PTCLDY    90  75  61 S7        30.03F
MANTEO         MOSUNNY   87  77  71 S20       30.03F

$$

NCZ045>047-081-094-103-104-012000-
CENTRAL COAST

CITY           SKY/WX    TMP DP  RH WIND       PRES   REMARKS
FRISCO         MOSUNNY   85  77  77 SW10      30.08F
SWANQUARTER      N/A     91 N/A N/A S7G13     30.03S

$$

NCZ095-097-098-100-101-012000-
SOUTHERN COAST

CITY           SKY/WX    TMP DP  RH WIND       PRES   REMARKS
BEAUFORT       MOSUNNY   85  74  69 S13       30.08F
CEDAR ISLAND     N/A     90 N/A N/A S10G17    30.09F
JACKSONVILLE   PTSUNNY   90  77  65 S14       30.06F HX 103
NEWPORT        NOT AVBL
PINEY ISLAND   MOCLDY    92  77  61 S7        30.06F HX 105
WILMINGTON     PTSUNNY   87  77  72 S10       30.06F


$$

NCZ011>013-027>030-043-044-078>080-089-090>093-098-012000-
COASTAL PLAIN

CITY           SKY/WX    TMP DP  RH WIND       PRES   REMARKS
AHOSKIE        PTSUNNY   89  75  61 S6        30.02F
CLINTON        PTSUNNY   93  73  51 NW3       30.06F HX 101
ELIZABETHTOWN  PTSUNNY   92  72  52 CALM      30.06F
GOLDSBORO      PTSUNNY   92  78  62 S3        30.03F HX 107
GREENVILLE     SUNNY     91  73  55 W5        30.06F HX 100
HAVELOCK       MOSUNNY   91  75  59 S12       30.07F HX 101
KENANSVILLE    PTSUNNY   91  71  50 CALM      30.07S
KINSTON        MOSUNNY   91  72  52 W3        30.06F
NEW BERN       MOSUNNY   95  73  48 S5        30.06F HX 104
RICHLANDS      MOSUNNY   93  72  49 SW6       30.05F HX 100
ROANOKE RAPIDS NOT AVBL
ROCKY MOUNT    PTSUNNY   92  71  50 SW7       30.05F
WASHINGTON     MOSUNNY   92  72  52 SW7       30.04F
WHITEVILLE     MOSUNNY   92  73  53 W6        30.06F HX 100

$$

AMZ130-135-150-152-154-156-158-170-250-252-270-ANZ085-086-088-633-658-670-012000-
MARINE OBSERVATIONS

STATION/POSITION TIME  TEMP    WIND        PRES    WAVE   SWELL
                       AIR SEA DIR/SP/G            HT/PER HT/PER
                 (UTC) (F)     (DEG/KT/KT) (MB)    (FT/S) (FT/S)
CHESAPEAKE LIGHT 1900   81     180/ 18/ 19 1016.3
BUOY 44014       1900   79 78  190/ 10/ 12 1016.9    2/ 8   2/ 8
DUCK             1900   87 75  170/  8/ 10 1016.3
2E DUCK          1900                        N/A     2/ 9   2/11
OREGON INLET     1900   83 83  180/ 15/ 19 1017.7
BUOY 44095       1900      80                N/A     3/ 9   2/11
20E OREGON INLET NOT AVBL
HATTERAS CG      1900   85 84  210/ 10/ 13 1019.0
DIAMOND BUOY     1900   82     200/ 14/ 16 1018.5    3/ 9   2/ 9
CAPE LOOKOUT     1900   83     190/ 10/ 12 1018.7
BEAUFORT LAB     1900   83 83  200/ 13/ 14 1018.1
30 SE NEW RIVER  1900   82 84  210/  8/ 10 1019.3    2/ 8   2/ 8
5 SE WRIGHTSVILL 1900   80 84  200/ 16/ 17   N/A
BUOY 41002       1835   82 85  210/  6/  8 1020.9    3/ 9   3/ 9
BUOY 41004       1900   83 85  150/  6/  8 1018.7    2/ 8   2/ 8

$$



USA.gov is the U.S. government's official web portal to all federal, state and local government web resources and services.